Regional Weather Roundup
Issued by NWS Wilmington, NC

Home | Current Version | Previous Version | Text Only | Print | Product List | Glossary On
Versions: 1 2 3 4 5 6 7 8 9 10 11 12 13 14 15 16 17 18 19 20 21 22 23 24 25 26 27 28
000
ASUS42 KILM 282112
RWRILM
RWRILM
REGIONAL HOURLY WEATHER ROUNDUP
NATIONAL WEATHER SERVICE WILMINGTON NC
500 PM EDT THU JUL 28 2016

NOTE: "FAIR" INDICATES FEW OR NO CLOUDS BELOW 12,000 FEET WITH NO
SIGNIFICANT WEATHER AND/OR OBSTRUCTIONS TO VISIBILITY.

...............WFO WILMINGTON COUNTY WARNING AREA...............

......COASTAL NC AND SC COUNTIES......

CITY           SKY/WX    TMP DP  RH WIND       PRES   REMARKS
WILMINGTON     SUNNY     94  73  50 SW17G24   29.88F HX 103
N MYRTLE BEACH SUNNY     90  77  65 SW21G26   29.91F HX 103
MYRTLE BEACH   MOSUNNY   91  72  52 S17G25    29.93F HX  98

......INLAND NC AND SC COUNTIES.......

CITY           SKY/WX    TMP DP  RH WIND       PRES   REMARKS
LUMBERTON      SUNNY     95  71  45 S10G18    29.87F HX 102
ELIZABETHTOWN  SUNNY     97  68  38 SW10G18   29.88F HX 102
WHITEVILLE     SUNNY     96  70  42 SW12      29.89F HX 101
FLORENCE       SUNNY     96  70  42 SW15G22   29.89F HX 102
DARLINGTON     NOT AVBL
KINGSTREE      FAIR      97  66  36 S9G16     29.90F HX 100
HARTSVILLE     FAIR      95  70  43 S10       29.88F HX 101
BENNETTSVILLE  FAIR      97  72  44 S10       29.87F HX 105
CONWAY         FAIR      95  72  46 SW9G16    29.90F HX 103
GEORGETOWN     FAIR      91  75  59 S13G18    29.93F HX 102
MARION           N/A     95  68  41 SW9G21    29.89F HX  99

....................REST OF NORTH CAROLINA......................

.........EASTERN NC.........

CITY           SKY/WX    TMP DP  RH WIND       PRES   REMARKS
CAPE HATTERAS  PTSUNNY   87  80  79 SW9       29.88S HX 103
JACKSONVILLE   SUNNY     98  72  42 S13       29.87F HX 107
MOREHEAD CITY  SUNNY     88  80  77 SW17      29.88F HX 104
KENANSVILLE    NOT AVBL
NEW BERN       SUNNY     95  75  52 SW10      29.86F HX 107
ELIZABETH CITY CLOUDY    92  78  63 S7        29.82F HX 107

.........CENTRAL NC.........

CITY           SKY/WX    TMP DP  RH WIND       PRES   REMARKS
RALEIGH DURHAM MOSUNNY   96  72  45 SW12      29.83F HX 104
ROCKY MOUNT    MOSUNNY   96  73  47 SW13      29.83F HX 105
ROANOKE RAPIDS NOT AVBL
FAYETTEVILLE   SUNNY     98  69  38 SW16      29.86F HX 104
HOFFMAN        NOT AVBL

.........WESTERN NC.........

CITY           SKY/WX    TMP DP  RH WIND       PRES   REMARKS
CHARLOTTE      MOSUNNY   96  66  37 SW18G28   29.88F HX  99
GREENSBORO     PTSUNNY   95  66  38 SW16G23   29.85F HX  98
HICKORY        NOT AVBL
BOONE          NOT AVBL
ASHEVILLE      NOT AVBL

.....................REST OF SOUTH CAROLINA.....................

.........EASTERN SC.........

CITY           SKY/WX    TMP DP  RH WIND       PRES   REMARKS
CHARLESTON     MOSUNNY   94  74  52 S15       29.93F HX 104
BEAUFORT MCAS  MOSUNNY   98  67  36 W7G17     29.94F HX 102
HILTON HEAD    MOSUNNY   95  79  59 S18       29.97F HX 112

.........CENTRAL SC.........

CITY           SKY/WX    TMP DP  RH WIND       PRES   REMARKS
COLUMBIA       MOSUNNY   99  64  31 W18G25    29.89F HX 101
ORANGEBURG     SUNNY     98  67  36 SW15G22   29.92F HX 102
SUMTER SHAW    SUNNY     98  67  36 SW15      29.87F HAZE    HX 102

.........WESTERN SC.........

CITY           SKY/WX    TMP DP  RH WIND       PRES   REMARKS
GREENVILLE     NOT AVBL
ROCK HILL      SUNNY     96  65  35 SW18G26   29.90F HX  98
ANDERSON       PTSUNNY   90  66  45 W14       29.94F HX  92
CLEMSON        NOT AVBL
GREENWOOD      MOSUNNY   94  66  39 SW16G26   29.95S HX  97


...................COASTAL AND OFFSHORE REPORTS..................

................LOCAL PIERS AND NC RESERVE................


STATION/POSITION TIME  SKY/WX   TEMP    WIND        PRES    VSBY
                                AIR SEA DIR/SP/G
                 (UTC)          (F)     (DEG/KT/KT) (MB)    (MI)
JOHNY MRCER PIER NOT AVBL
NC RESRV MASNBRO NOT AVBL
OCEAN CREST PIER NOT AVBL
SPRINGMAID  PIER NOT AVBL


................COASTAL AND OFFSHORE BUOYS................


STATION/POSITION TIME  SKY/WX   TEMP    WIND        PRES    VSBY
                                AIR SEA DIR/SP/G
                 (UTC)          (F)     (DEG/KT/KT) (MB)    (MI)
DIMNDSHOAL 41025 NOT AVBL
CAPE LOOKOUT     NOT AVBL
ONSLOW BAY 41036 NOT AVBL
ONSLOW BAY 41064 NOT AVBL
ONSLOW BAY 41159 NOT AVBL
5SE WRITBC 41038 NOT AVBL
MASNBO INL 41110 NOT AVBL
WILM HARBR 41108 NOT AVBL
27SE WRITB 41037 NOT AVBL
FRYING PAN 41013 NOT AVBL
SUNST NRSH 41024 NOT AVBL
CAPRS NRSH 41029 NOT AVBL
EDISTO     41004 NOT AVBL


..........OFFSHORE BUOYS BEYOND 100 NM OFFSHORE...........
.....IN A TRIANGLE---HAT TO BERMUDA TO BAHAMAS TO HAT.....


STATION/POSITION TIME  SKY/WX   TEMP    WIND        PRES    VSBY
                                AIR SEA DIR/SP/G
                 (UTC)          (F)     (DEG/KT/KT) (MB)    (MI)
150E HAT   41001 NOT AVBL
W BERMUDA  41048 NOT AVBL
ATLANTIC S 41049 NOT AVBL
E BAHAMAS  41046 NOT AVBL
NE BAHAMAS 41047 NOT AVBL
120E CANVRL41010 NOT AVBL

END




USA.gov is the U.S. government's official web portal to all federal, state and local government web resources and services.